Погода в Утхайтхани

Таиланд     15°22′08″N   100°02′28″E
темп.,
°C
ветер,
м/с
пор.,
м/с
влажн.,
%
обл.,
%
осадки,
мм/ч
давл.,
гПа
погр.,
м
24 мая, вт
вт2401:00+26ююз4877100 0.3 1005195
04:00+26ююз3880100 0.0 1004248
07:00+26ю4882100 0.0 1006336
10:00+31ююз566366 0.4 10081167
13:00+32ююз675699 0.8 10061463
16:00+32ююз566097 0.6 10041016
19:00+28ююз4877100 2.7 1006215
22:00+26юз4978100 0.5 1008284
25 мая, ср
ср2501:00+25юз368499 1.3 1008163
04:00+25ю1284100 1.1 100738
07:00+25юв2386100 1.1 100892
10:00+30ююз126543 0.0 1010754
13:00+33зюз2449100 0.0 10071959
16:00+33ю334998 0.0 10051635
19:00+28ююз356916 0.0 1005140
22:00+27юз237296 0.4 100758
26 мая, чт
чт2601:00+27з117298 0.4 100620
04:00+26зюз2276100 0.0 100535
07:00+26зюз2374100 0.0 100791
10:00+26юз1276100 0.0 1007105
13:00+28юз2369100 0.0 1006274
16:00+33ююз364966 0.0 10021627
19:00+29юз3668100 0.0 1003176
22:00+28з1266100 0.0 100547
27 мая, пт
пт2701:00+27юз226994 0.0 100439
04:00+27ююз227261 0.0 100352
07:00+27юз237345 0.0 1004129
10:00+31з3559100 0.0 1005792
13:00+30зюз4661100 0.0 1004774
16:00+29зюз366699 0.0 1002655
19:00+27ююз236998 0.0 100276
22:00+26юз366690 0.0 1004161
28 мая, сб
сб2801:00+25ююз347158 0.0 100385
04:00+25юз227379 0.0 100241
07:00+26ююз237499 0.0 1004113
10:00+28ююз236499 0.0 1005372
13:00+32юз655341 0.0 10031131
16:00+30юз466136 0.1 1001546
19:00+27ююз476968 0.1 1002193
22:00+26ююз356874 0.0 1004135